Flag for U.S.A. Weather past 2 weeks in Neenah, Wisconsin, U.S.A.

Now
27 °F

Light snow. Mostly cloudy.


Feels Like: 23 °F
Forecast: 27 / 35 °F
Wind: 3 mph from North

Location: Appleton / Outagamie

Current Time: Dec 20, 2014 at 6:06:29 PM

Latest Report: Dec 20, 2014 at 4:45 PM


Visibility: 4 mi

Pressure: 30.22 "Hg

Humidity: 86%

Dew point: 23 °F

Location of NeenahLocation

Historic Weather in Neenah — Graph

°F

Neenah temperature yesterday

Maximum temperature yesterday: 30 °F (at 1:45 PM)
Minimum temperature yesterday: 16 °F (at 5:45 AM)
Average temperature yesterday: 21 °F

Past Weeks' High & Low Weather Summary

 TemperatureHumidityPressure
High43 °F (Dec 15, 10:45 AM)100% (Dec 8, 3:55 AM)30.69 "Hg (Dec 8, 3:55 AM)
Low16 °F (Dec 11, 5:45 AM)59% (Dec 6, 1:45 PM)29.66 "Hg (Dec 16, 1:35 AM)
Average28 °F89%30.19 "Hg
* Reported Dec 5 4:45 PM — Dec 20 4:45 PM, Neenah, Weather by CustomWeather, © 2014

Note: Actual official high and low records may vary slightly from our data, if they occured in-between our weather recording intervals... More about our weather records

Advertising

Neenah weather history for previous 24 hours

 ConditionsComfort  
Time TempWeatherWind HumidityBarometerVisibility
4:45 PM
Dec 20
27 °FLight snow. Mostly cloudy.3 mph86%30.22 "Hg4 mi
3:45 PM28 °FLight snow. Overcast.5 mph80%30.22 "Hg5 mi
2:45 PM28 °FLight snow. Overcast.No wind74%30.22 "Hg5 mi
1:45 PM28 °FOvercast.5 mph74%30.22 "Hg7 mi
12:45 PM28 °FOvercast.3 mph74%30.23 "Hg7 mi
11:45 AM28 °FOvercast.No wind74%30.24 "Hg7 mi
10:45 AM27 °FOvercast.No wind80%30.25 "Hg7 mi
9:45 AM27 °FMostly cloudy.3 mph80%30.26 "Hg7 mi
8:45 AM25 °FPartly sunny.3 mph80%30.26 "Hg7 mi
7:45 AM25 °FPartly sunny.No wind80%30.26 "Hg7 mi
6:45 AM23 °FPassing clouds.No wind86%30.26 "Hg10 mi
5:45 AM23 °FPassing clouds.No wind93%30.26 "Hg10 mi
4:15 AM23 °FOvercast.No wind86%30.26 "Hg10 mi
3:55 AM21 °FOvercast.No wind93%30.26 "Hg10 mi
3:35 AM21 °FPassing clouds.No wind86%30.27 "Hg10 mi
3:15 AM21 °FClear.No wind86%30.27 "Hg10 mi
2:55 AM21 °FClear.No wind86%30.27 "Hg10 mi
2:35 AM21 °FClear.No wind86%30.27 "Hg10 mi
2:15 AM21 °FClear.No wind86%30.26 "Hg10 mi
1:55 AM21 °FClear.No wind86%30.26 "Hg10 mi
1:35 AM21 °FPassing clouds.No wind86%30.25 "Hg10 mi
1:15 AM21 °FPassing clouds.No wind86%30.26 "Hg10 mi
12:55 AM21 °FPassing clouds.No wind86%30.26 "Hg10 mi
12:35 AM21 °FPassing clouds.No wind86%30.26 "Hg10 mi
12:15 AM21 °FPassing clouds.No wind86%30.26 "Hg10 mi
11:55 PM
Dec 19
21 °FClear.No wind86%30.26 "Hg10 mi
11:35 PM21 °FCold.No wind86%30.26 "HgN/A
11:15 PM21 °FClear.No wind86%30.26 "Hg10 mi
10:55 PM23 °FClear.No wind80%30.25 "Hg10 mi
10:45 PM21 °FPassing clouds.No wind86%30.25 "Hg10 mi
10:15 PM21 °FClear.No wind86%30.25 "Hg10 mi
9:45 PM21 °FPassing clouds.No wind86%30.25 "Hg10 mi
8:45 PM21 °FPassing clouds.No wind86%30.25 "Hg10 mi
7:45 PM25 °FOvercast.3 mph74%30.28 "Hg10 mi
6:45 PM27 °FOvercast.6 mph74%30.29 "Hg10 mi
Weather by CustomWeather, © 2014

See weather overviewHow to use our weather pages